FENGYUN 1C DEB, 46992

Orbit data source: Space-Track

FENGYUN 1C DEB, 46992 is space debris in SSO originally from a launch on Mon, 10 May 1999 UTC launched from the Taiyaun Space Center, China (TSC). Fengyun 1C debris stems from the Chinese weather satellite Fengyun-1C, which was intentionally destroyed by a Chinese anti-satellite missile in 2007. This event dramatically increased the amount of space debris, with thousands of trackable fragments posing hazards to satellites and human spaceflight. The Fengyun 1C debris cloud has become a focal point in discussions about space sustainability and the need for international regulations to prevent the creation of new debris.

Loading next visibility...
Identifier
46992, 1999-025EZS
Orbit
SSO
Country
Flag of CNCN / PRC
Related business
Manufacturer
Unknown
Mission
Spacecraft
Bus & Motor
Unknown
Mass
Unknown
Launch date (UTC)
1999-05-10 (27 years ago)
Launch vehicle
Unknown
Launch site
Taiyaun Space Center, China (TSC)
Object type
Payload
Rocket body
Debris
Shape & HBR
Unknown shape, 0.1 m
Radar Cross Section
Small (<0.1 m²)

Expand to show TLE details & history
Last TLE update: 6 days ago

TLE from 6 days ago
0 FENGYUN 1C DEB
1 46992U 99025EZS 26065.18789178  .00000616  00000-0  43281-3 0  9997
2 46992  98.9176  54.8515 0070519 289.6481  69.7083 14.00817506621251
Epoch: 2026-03-06T04:30Z
TLE epoch observation values (Epoch: 2026-03-06T04:30:33.849Z)
Latitude
-0.00009°
Longitude
-176.71701°
Altitude
876.386 km
Speed
7.423 km/s
True Right ascension
03h 39m 24s
True Declination
0° 00' 00"
Sunlit
Object was in daylight at epoch
Visualization orbit readout
Latitude
Unknown
Longitude
Unknown
Altitude
Unknown
Speed
Unknown
Apparent Right ascension
Unknown
Apparent Declination
Unknown
Sunlit
N/A
Visualization observer readout
Local Sidereal Time
18:39:07
Azimuth
Unknown
Elevation
Unknown
Doppler factor
Unknown
Orbital elements
Apogee altitude
939.401 km
Perigee altitude
836.919 km
Semi-major axis
7,266.297 km
Eccentricity
0.00705
Inclination
98.9176°
RAAN
54.8515°
Arg. of periapsis
289.6481°
True anomaly
70.46854°
Mean anomaly
69.7083°
Eccentric anomaly
70.08819°
Mean motion
3.50408 °/min
Orbital period
102.74 mins
BSTAR
0.00043281
Loading maneuver chart data...
Computing Atmospheric mass density...
Loading historical data...
Loading historical data...
Loading historical data...
Loading historical data...
Loading historical data...
Loading historical data...
Loading historical data...

Documentation

Showing up to 5 results
|